Time,TemperatureF,DewpointF,PressureIn,WindDirection,WindDirectionDegrees,WindSpeedMPH,WindSpeedGustMPH,Humidity,HourlyPrecipIn,Conditions,Clouds,dailyrainin,SoftwareType,DateUTC
2013-04-07 00:00:00,56.7,22.1,30.05,East,99,5.0,14.0,26,0.00,,,0.00,meteohub,2013-04-07 04:00:00,
2013-04-07 00:02:00,56.7,22.1,30.05,ESE,112,7.0,14.0,26,0.00,,,0.00,meteohub,2013-04-07 04:02:00,
2013-04-07 00:04:00,56.7,22.1,30.04,SSW,203,6.0,14.0,26,0.00,,,0.00,meteohub,2013-04-07 04:04:00,
2013-04-07 00:10:00,56.7,23.0,30.04,SE,127,4.0,14.0,27,0.00,,,0.00,meteohub,2013-04-07 04:10:00,
2013-04-07 00:15:00,56.7,22.1,30.04,WSW,248,1.0,14.0,26,0.00,,,0.00,meteohub,2013-04-07 04:15:00,
2013-04-07 00:20:00,56.5,22.8,30.04,ENE,78,2.0,12.0,27,0.00,,,0.00,meteohub,2013-04-07 04:20:00,
2013-04-07 00:25:00,56.5,22.8,30.04,South,188,0.0,12.0,27,0.00,,,0.00,meteohub,2013-04-07 04:25:00,
2013-04-07 00:30:00,56.1,23.4,30.04,SSE,160,2.0,12.0,28,0.00,,,0.00,meteohub,2013-04-07 04:30:00,
2013-04-07 00:36:00,56.1,23.4,30.04,SSE,162,1.0,11.0,28,0.00,,,0.00,meteohub,2013-04-07 04:36:00,
2013-04-07 00:42:00,56.3,23.5,30.05,WSW,250,5.0,9.0,28,0.00,,,0.00,meteohub,2013-04-07 04:42:00,
2013-04-07 00:47:00,56.1,23.4,30.04,West,269,2.0,8.0,28,0.00,,,0.00,meteohub,2013-04-07 04:47:00,
2013-04-07 00:52:00,56.1,24.3,30.05,South,176,1.0,8.0,29,0.00,,,0.00,meteohub,2013-04-07 04:52:00,
2013-04-07 00:57:00,56.1,24.3,30.05,WSW,248,6.0,6.0,29,0.00,,,0.00,meteohub,2013-04-07 04:57:00,
2013-04-07 01:02:00,56.1,24.3,30.05,NW,326,0.0,8.0,29,0.00,,,0.00,meteohub,2013-04-07 05:02:00,
2013-04-07 01:07:00,55.9,25.0,30.05,SSW,204,1.0,8.0,30,0.00,,,0.00,meteohub,2013-04-07 05:07:00,
2013-04-07 01:12:00,55.9,25.0,30.05,SE,131,3.0,8.0,30,0.00,,,0.00,meteohub,2013-04-07 05:12:00,
2013-04-07 01:17:00,56.1,25.2,30.05,WSW,238,0.0,10.0,30,0.00,,,0.00,meteohub,2013-04-07 05:17:00,
2013-04-07 01:23:00,56.1,25.9,30.04,East,86,6.0,10.0,31,0.00,,,0.00,meteohub,2013-04-07 05:23:00,
2013-04-07 01:28:00,55.9,26.4,30.05,WSW,248,0.0,10.0,32,0.00,,,0.00,meteohub,2013-04-07 05:28:00,
2013-04-07 01:33:00,56.5,26.2,30.04,SE,127,0.0,9.0,31,0.00,,,0.00,meteohub,2013-04-07 05:33:00,
2013-04-07 01:38:00,56.3,26.1,30.04,WNW,284,1.0,9.0,31,0.00,,,0.00,meteohub,2013-04-07 05:38:00,
2013-04-07 01:43:00,56.1,25.9,30.04,SSW,210,1.0,7.0,31,0.00,,,0.00,meteohub,2013-04-07 05:43:00,
2013-04-07 01:48:00,56.1,26.6,30.04,WNW,290,2.0,7.0,32,0.00,,,0.00,meteohub,2013-04-07 05:48:00,
2013-04-07 01:54:00,56.3,26.8,30.05,SE,126,0.0,5.0,32,0.00,,,0.00,meteohub,2013-04-07 05:54:00,
2013-04-07 01:59:00,56.5,27.0,30.05,SW,228,3.0,7.0,32,0.00,,,0.00,meteohub,2013-04-07 05:59:00,
2013-04-07 02:04:00,56.7,27.1,30.05,South,177,0.0,7.0,32,0.00,,,0.00,meteohub,2013-04-07 06:04:00,
2013-04-07 02:10:00,56.7,27.9,30.05,East,96,2.0,7.0,33,0.00,,,0.00,meteohub,2013-04-07 06:10:00,
2013-04-07 02:15:00,56.7,28.6,30.04,SE,145,2.0,9.0,34,0.00,,,0.00,meteohub,2013-04-07 06:15:00,
2013-04-07 02:20:00,57.0,28.2,30.05,ENE,63,2.0,9.0,33,0.00,,,0.00,meteohub,2013-04-07 06:20:00,
2013-04-07 02:26:00,57.4,28.6,30.05,WSW,249,1.0,8.0,33,0.00,,,0.00,meteohub,2013-04-07 06:26:00,
2013-04-07 02:32:00,57.7,28.8,30.04,East,101,5.0,8.0,33,0.00,,,0.00,meteohub,2013-04-07 06:32:00,
2013-04-07 02:37:00,58.3,29.3,30.04,West,281,5.0,10.0,33,0.00,,,0.00,meteohub,2013-04-07 06:37:00,
2013-04-07 02:42:00,58.5,29.5,30.04,East,86,8.0,11.0,33,0.00,,,0.00,meteohub,2013-04-07 06:42:00,
2013-04-07 02:47:00,58.8,29.8,30.04,SSW,204,2.0,14.0,33,0.00,,,0.00,meteohub,2013-04-07 06:47:00,
2013-04-07 02:52:00,58.8,29.8,30.04,WSW,238,4.0,18.0,33,0.00,,,0.00,meteohub,2013-04-07 06:52:00,
2013-04-07 02:57:00,59.2,29.3,30.04,WNW,284,0.0,18.0,32,0.00,,,0.00,meteohub,2013-04-07 06:57:00,
2013-04-07 03:03:00,59.0,30.0,30.04,East,84,6.0,18.0,33,0.00,,,0.00,meteohub,2013-04-07 07:03:00,
2013-04-07 03:08:00,59.0,29.1,30.04,NE,41,3.0,18.0,32,0.00,,,0.00,meteohub,2013-04-07 07:08:00,
2013-04-07 03:13:00,58.8,28.9,30.04,NW,316,4.0,17.0,32,0.00,,,0.00,meteohub,2013-04-07 07:13:00,
2013-04-07 03:18:00,58.5,29.5,30.03,ESE,103,7.0,17.0,33,0.00,,,0.00,meteohub,2013-04-07 07:18:00,
2013-04-07 03:23:00,58.3,28.6,30.03,ESE,105,4.0,12.0,32,0.00,,,0.00,meteohub,2013-04-07 07:23:00,
2013-04-07 03:29:00,57.7,28.8,30.03,SE,142,1.0,12.0,33,0.00,,,0.00,meteohub,2013-04-07 07:29:00,
2013-04-07 03:34:00,57.6,28.6,30.03,SSW,207,1.0,11.0,33,0.00,,,0.00,meteohub,2013-04-07 07:34:00,
2013-04-07 03:39:00,57.6,28.6,30.03,SSE,152,5.0,11.0,33,0.00,,,0.00,meteohub,2013-04-07 07:39:00,
2013-04-07 03:45:00,57.4,29.3,30.02,SSE,153,5.0,11.0,34,0.00,,,0.00,meteohub,2013-04-07 07:45:00,
2013-04-07 03:50:00,57.2,29.1,30.03,WNW,295,0.0,18.0,34,0.00,,,0.00,meteohub,2013-04-07 07:50:00,
2013-04-07 03:56:00,57.4,29.3,30.02,SSW,203,0.0,18.0,34,0.00,,,0.00,meteohub,2013-04-07 07:56:00,
2013-04-07 04:01:00,57.0,28.9,30.02,SE,128,2.0,12.0,34,0.00,,,0.00,meteohub,2013-04-07 08:01:00,
2013-04-07 04:06:00,57.0,28.9,30.02,SW,217,0.0,12.0,34,0.00,,,0.00,meteohub,2013-04-07 08:06:00,
2013-04-07 04:12:00,56.8,28.8,30.02,West,259,7.0,12.0,34,0.00,,,0.00,meteohub,2013-04-07 08:12:00,
2013-04-07 04:17:00,57.2,29.1,30.01,SW,228,0.0,12.0,34,0.00,,,0.00,meteohub,2013-04-07 08:17:00,
2013-04-07 04:22:00,57.2,29.1,30.01,SE,124,3.0,14.0,34,0.00,,,0.00,meteohub,2013-04-07 08:22:00,
2013-04-07 04:27:00,57.6,29.5,30.01,South,177,2.0,14.0,34,0.00,,,0.00,meteohub,2013-04-07 08:27:00,
2013-04-07 04:33:00,57.9,28.9,30.01,SW,217,3.0,11.0,33,0.00,,,0.00,meteohub,2013-04-07 08:33:00,
2013-04-07 04:38:00,57.7,29.5,30.00,SE,128,6.0,11.0,34,0.00,,,0.00,meteohub,2013-04-07 08:38:00,
2013-04-07 04:44:00,57.9,29.7,30.01,South,186,4.0,11.0,34,0.00,,,0.00,meteohub,2013-04-07 08:44:00,
2013-04-07 04:49:00,57.9,29.7,30.01,East,91,4.0,11.0,34,0.00,,,0.00,meteohub,2013-04-07 08:49:00,
2013-04-07 04:55:00,57.9,29.7,30.01,SE,138,0.0,11.0,34,0.00,,,0.00,meteohub,2013-04-07 08:55:00,
2013-04-07 05:00:00,58.3,30.0,30.00,WSW,252,19.0,19.0,34,0.00,,,0.00,meteohub,2013-04-07 09:00:00,
2013-04-07 05:05:00,58.5,30.2,30.00,SSW,210,0.0,20.0,34,0.00,,,0.00,meteohub,2013-04-07 09:05:00,
2013-04-07 05:10:00,58.5,29.5,30.00,SE,124,5.0,20.0,33,0.00,,,0.00,meteohub,2013-04-07 09:10:00,
2013-04-07 05:17:00,58.5,29.5,30.00,WNW,283,2.0,14.0,33,0.00,,,0.00,meteohub,2013-04-07 09:17:00,
2013-04-07 05:22:00,58.5,30.2,30.00,SW,215,4.0,14.0,34,0.00,,,0.00,meteohub,2013-04-07 09:22:00,
2013-04-07 05:27:00,58.6,30.4,30.01,SE,129,7.0,9.0,34,0.00,,,0.00,meteohub,2013-04-07 09:27:00,
2013-04-07 05:32:00,58.6,29.7,30.01,WNW,297,2.0,12.0,33,0.00,,,0.00,meteohub,2013-04-07 09:32:00,
2013-04-07 05:37:00,58.5,30.2,30.01,SSE,150,4.0,12.0,34,0.00,,,0.00,meteohub,2013-04-07 09:37:00,
2013-04-07 05:42:00,58.6,30.4,30.01,West,267,5.0,12.0,34,0.00,,,0.00,meteohub,2013-04-07 09:42:00,
2013-04-07 05:47:00,58.6,30.4,30.01,SW,235,3.0,11.0,34,0.00,,,0.00,meteohub,2013-04-07 09:47:00,
2013-04-07 05:52:00,58.5,30.2,30.01,WNW,302,0.0,11.0,34,0.00,,,0.00,meteohub,2013-04-07 09:52:00,
2013-04-07 05:57:00,58.1,29.8,30.01,ESE,111,1.0,11.0,34,0.00,,,0.00,meteohub,2013-04-07 09:57:00,
2013-04-07 06:02:00,57.9,29.7,30.01,SE,146,6.0,9.0,34,0.00,,,0.00,meteohub,2013-04-07 10:02:00,
2013-04-07 06:07:00,57.9,29.7,30.01,WSW,253,4.0,9.0,34,0.00,,,0.00,meteohub,2013-04-07 10:07:00,
2013-04-07 06:13:00,57.7,29.5,30.00,ESE,111,4.0,9.0,34,0.00,,,0.00,meteohub,2013-04-07 10:13:00,
2013-04-07 06:18:00,57.7,29.5,30.00,SSE,162,6.0,10.0,34,0.00,,,0.00,meteohub,2013-04-07 10:18:00,
2013-04-07 06:23:00,57.9,30.4,30.00,East,85,3.0,10.0,35,0.00,,,0.00,meteohub,2013-04-07 10:23:00,
2013-04-07 06:28:00,57.9,30.4,30.00,East,101,0.0,8.0,35,0.00,,,0.00,meteohub,2013-04-07 10:28:00,
2013-04-07 06:34:00,57.9,30.4,30.00,South,178,2.0,8.0,35,0.00,,,0.00,meteohub,2013-04-07 10:34:00,
2013-04-07 06:39:00,57.9,30.4,30.00,SSE,156,3.0,8.0,35,0.00,,,0.00,meteohub,2013-04-07 10:39:00,
2013-04-07 06:45:00,58.3,30.7,30.00,South,172,1.0,9.0,35,0.00,,,0.00,meteohub,2013-04-07 10:45:00,
2013-04-07 06:52:00,58.5,30.9,29.99,ESE,113,2.0,13.0,35,0.00,,,0.00,meteohub,2013-04-07 10:52:00,
2013-04-07 06:57:00,58.8,31.3,30.00,East,101,0.0,13.0,35,0.00,,,0.00,meteohub,2013-04-07 10:57:00,
2013-04-07 07:02:00,58.8,31.3,29.99,WSW,245,2.0,8.0,35,0.00,,,0.00,meteohub,2013-04-07 11:02:00,
2013-04-07 07:07:00,58.8,31.3,29.99,West,271,5.0,8.0,35,0.00,,,0.00,meteohub,2013-04-07 11:07:00,
2013-04-07 07:12:00,59.0,31.5,29.99,East,91,3.0,7.0,35,0.00,,,0.00,meteohub,2013-04-07 11:12:00,
2013-04-07 07:17:00,59.2,31.5,30.00,WNW,288,0.0,9.0,35,0.00,,,0.00,meteohub,2013-04-07 11:17:00,
2013-04-07 07:22:00,59.4,31.6,30.00,SW,226,1.0,9.0,35,0.00,,,0.00,meteohub,2013-04-07 11:22:00,
2013-04-07 07:27:00,59.4,31.6,30.00,SE,142,4.0,9.0,35,0.00,,,0.00,meteohub,2013-04-07 11:27:00,
2013-04-07 07:33:00,59.4,31.6,29.99,SSE,159,6.0,9.0,35,0.00,,,0.00,meteohub,2013-04-07 11:33:00,
2013-04-07 07:38:00,59.4,31.6,30.00,SSE,156,3.0,11.0,35,0.00,,,0.00,meteohub,2013-04-07 11:38:00,
2013-04-07 07:43:00,59.4,31.6,30.00,ESE,120,7.0,11.0,35,0.00,,,0.00,meteohub,2013-04-07 11:43:00,
2013-04-07 07:49:00,59.4,31.6,30.00,ESE,115,1.0,12.0,35,0.00,,,0.00,meteohub,2013-04-07 11:49:00,
2013-04-07 07:54:00,59.5,32.5,30.00,East,96,3.0,12.0,36,0.00,,,0.00,meteohub,2013-04-07 11:54:00,
2013-04-07 07:59:00,59.7,32.7,30.00,East,80,4.0,12.0,36,0.00,,,0.00,meteohub,2013-04-07 11:59:00,
2013-04-07 08:04:00,59.7,32.7,30.00,WNW,300,6.0,9.0,36,0.00,,,0.00,meteohub,2013-04-07 12:04:00,
2013-04-07 08:09:00,59.9,32.2,30.00,SSE,167,0.0,9.0,35,0.00,,,0.00,meteohub,2013-04-07 12:09:00,
2013-04-07 08:15:00,60.3,33.3,29.99,WSW,246,4.0,9.0,36,0.00,,,0.00,meteohub,2013-04-07 12:15:00,
2013-04-07 08:20:00,60.3,33.3,30.00,SW,225,3.0,13.0,36,0.00,,,0.00,meteohub,2013-04-07 12:20:00,
2013-04-07 08:25:00,60.4,33.4,30.00,SSE,160,3.0,13.0,36,0.00,,,0.00,meteohub,2013-04-07 12:25:00,
2013-04-07 08:31:00,60.6,32.9,30.00,East,82,0.0,14.0,35,0.00,,,0.00,meteohub,2013-04-07 12:31:00,
2013-04-07 08:36:00,60.8,33.6,30.00,West,266,1.0,14.0,36,0.00,,,0.00,meteohub,2013-04-07 12:36:00,
2013-04-07 08:41:00,60.8,33.6,30.00,SW,226,3.0,12.0,36,0.00,,,0.00,meteohub,2013-04-07 12:41:00,
2013-04-07 08:47:00,61.2,33.3,29.99,West,264,1.0,10.0,35,0.00,,,0.00,meteohub,2013-04-07 12:47:00,
2013-04-07 08:52:00,61.3,33.4,29.99,ESE,115,3.0,11.0,35,0.00,,,0.00,meteohub,2013-04-07 12:52:00,
2013-04-07 08:57:00,61.5,33.6,30.00,SE,143,10.0,13.0,35,0.00,,,0.00,meteohub,2013-04-07 12:57:00,
2013-04-07 09:02:00,61.9,34.0,30.00,NNE,29,6.0,14.0,35,0.00,,,0.00,meteohub,2013-04-07 13:02:00,
2013-04-07 09:07:00,62.1,34.9,29.99,West,270,9.0,14.0,36,0.00,,,0.00,meteohub,2013-04-07 13:07:00,
2013-04-07 09:12:00,62.4,34.3,30.00,SE,131,5.0,14.0,35,0.00,,,0.00,meteohub,2013-04-07 13:12:00,
2013-04-07 09:18:00,62.8,34.7,29.99,WSW,256,5.0,12.0,35,0.00,,,0.00,meteohub,2013-04-07 13:18:00,
2013-04-07 09:23:00,63.0,34.9,29.99,South,179,5.0,12.0,35,0.00,,,0.00,meteohub,2013-04-07 13:23:00,
2013-04-07 09:29:00,63.0,34.9,29.99,WSW,238,14.0,14.0,35,0.00,,,0.00,meteohub,2013-04-07 13:29:00,
2013-04-07 09:34:00,63.1,34.3,29.99,SE,139,9.0,11.0,34,0.00,,,0.00,meteohub,2013-04-07 13:34:00,
2013-04-07 09:39:00,63.1,35.1,29.99,SSW,207,7.0,14.0,35,0.00,,,0.00,meteohub,2013-04-07 13:39:00,
2013-04-07 09:44:00,63.3,35.2,29.99,SW,232,4.0,14.0,35,0.00,,,0.00,meteohub,2013-04-07 13:44:00,
2013-04-07 09:50:00,63.7,34.7,29.99,WNW,285,2.0,14.0,34,0.00,,,0.00,meteohub,2013-04-07 13:50:00,
2013-04-07 09:55:00,63.9,35.6,29.99,WSW,257,2.0,14.0,35,0.00,,,0.00,meteohub,2013-04-07 13:55:00,
2013-04-07 10:00:00,64.0,35.1,29.98,WNW,302,2.0,14.0,34,0.00,,,0.00,meteohub,2013-04-07 14:00:00,
2013-04-07 10:05:00,64.0,35.8,29.98,SW,215,5.0,14.0,35,0.00,,,0.00,meteohub,2013-04-07 14:05:00,
2013-04-07 10:10:00,64.4,36.1,29.98,WSW,248,8.0,12.0,35,0.00,,,0.00,meteohub,2013-04-07 14:10:00,
2013-04-07 10:16:00,64.6,36.3,29.98,WSW,250,8.0,13.0,35,0.00,,,0.00,meteohub,2013-04-07 14:16:00,
2013-04-07 10:21:00,64.9,36.7,29.97,SW,219,7.0,17.0,35,0.00,,,0.00,meteohub,2013-04-07 14:21:00,
2013-04-07 10:26:00,65.5,37.0,29.97,South,180,0.0,17.0,35,0.00,,,0.00,meteohub,2013-04-07 14:26:00,
2013-04-07 10:31:00,65.5,37.0,29.97,WSW,238,10.0,17.0,35,0.00,,,0.00,meteohub,2013-04-07 14:31:00,
2013-04-07 10:37:00,65.5,37.0,29.98,SW,224,7.0,15.0,35,0.00,,,0.00,meteohub,2013-04-07 14:37:00,
2013-04-07 10:42:00,65.8,36.7,29.97,SSW,193,4.0,15.0,34,0.00,,,0.00,meteohub,2013-04-07 14:42:00,
2013-04-07 10:47:00,66.0,36.9,29.98,SE,138,4.0,15.0,34,0.00,,,0.00,meteohub,2013-04-07 14:47:00,
2013-04-07 10:53:00,66.2,37.8,29.97,West,274,4.0,14.0,35,0.00,,,0.00,meteohub,2013-04-07 14:53:00,
2013-04-07 10:58:00,66.7,38.3,29.97,SSW,208,7.0,14.0,35,0.00,,,0.00,meteohub,2013-04-07 14:58:00,
2013-04-07 11:04:00,66.7,37.4,29.97,WSW,246,10.0,17.0,34,0.00,,,0.00,meteohub,2013-04-07 15:04:00,
2013-04-07 11:09:00,66.9,37.6,29.97,ESE,116,1.0,17.0,34,0.00,,,0.00,meteohub,2013-04-07 15:09:00,
2013-04-07 11:14:00,67.3,37.9,29.97,WSW,248,11.0,17.0,34,0.00,,,0.00,meteohub,2013-04-07 15:14:00,
2013-04-07 11:19:00,67.1,37.8,29.97,SSE,153,3.0,15.0,34,0.00,,,0.00,meteohub,2013-04-07 15:19:00,
2013-04-07 11:24:00,67.3,37.2,29.97,SSW,208,3.0,15.0,33,0.00,,,0.00,meteohub,2013-04-07 15:24:00,
2013-04-07 11:30:00,67.3,38.7,29.97,SSW,195,6.0,20.0,35,0.00,,,0.00,meteohub,2013-04-07 15:30:00,
2013-04-07 11:35:00,67.1,37.8,29.96,West,280,8.0,20.0,34,0.00,,,0.00,meteohub,2013-04-07 15:35:00,
2013-04-07 11:40:00,67.1,38.5,29.96,SW,233,5.0,20.0,35,0.00,,,0.00,meteohub,2013-04-07 15:40:00,
2013-04-07 11:46:00,67.3,37.9,29.96,WSW,257,10.0,16.0,34,0.00,,,0.00,meteohub,2013-04-07 15:46:00,
2013-04-07 11:51:00,67.5,38.8,29.96,West,273,2.0,14.0,35,0.00,,,0.00,meteohub,2013-04-07 15:51:00,
2013-04-07 11:57:00,67.8,38.5,29.96,SSE,162,4.0,13.0,34,0.00,,,0.00,meteohub,2013-04-07 15:57:00,
2013-04-07 12:02:00,68.2,38.7,29.96,WNW,285,8.0,16.0,34,0.00,,,0.00,meteohub,2013-04-07 16:02:00,
2013-04-07 12:07:00,68.0,38.7,29.96,WSW,249,5.0,16.0,34,0.00,,,0.00,meteohub,2013-04-07 16:07:00,
2013-04-07 12:12:00,68.0,39.4,29.96,WSW,240,10.0,17.0,35,0.00,,,0.00,meteohub,2013-04-07 16:12:00,
2013-04-07 12:17:00,67.8,39.2,29.96,SW,236,9.0,17.0,35,0.00,,,0.00,meteohub,2013-04-07 16:17:00,
2013-04-07 12:22:00,67.8,38.5,29.95,SSE,163,4.0,17.0,34,0.00,,,0.00,meteohub,2013-04-07 16:22:00,
2013-04-07 12:27:00,68.0,39.4,29.95,SSW,212,11.0,16.0,35,0.00,,,0.00,meteohub,2013-04-07 16:27:00,
2013-04-07 12:32:00,68.2,38.7,29.95,SW,232,4.0,16.0,34,0.00,,,0.00,meteohub,2013-04-07 16:32:00,
2013-04-07 12:38:00,68.7,39.2,29.95,SW,215,3.0,16.0,34,0.00,,,0.00,meteohub,2013-04-07 16:38:00,
2013-04-07 12:43:00,68.7,39.2,29.94,WNW,294,2.0,13.0,34,0.00,,,0.00,meteohub,2013-04-07 16:43:00,
2013-04-07 12:48:00,69.3,38.8,29.94,SW,224,7.0,12.0,33,0.00,,,0.00,meteohub,2013-04-07 16:48:00,
2013-04-07 12:53:00,70.2,39.7,29.94,South,169,7.0,12.0,33,0.00,,,0.00,meteohub,2013-04-07 16:53:00,
2013-04-07 12:59:00,70.2,39.7,29.94,SW,217,4.0,13.0,33,0.00,,,0.00,meteohub,2013-04-07 16:59:00,
2013-04-07 13:04:00,70.2,40.5,29.94,WNW,287,10.0,15.0,34,0.00,,,0.00,meteohub,2013-04-07 17:04:00,
2013-04-07 13:09:00,70.3,39.0,29.94,SSW,195,3.0,21.0,32,0.00,,,0.00,meteohub,2013-04-07 17:09:00,
2013-04-07 13:14:00,70.7,39.4,29.94,WSW,246,7.0,21.0,32,0.00,,,0.00,meteohub,2013-04-07 17:14:00,
2013-04-07 13:20:00,70.5,40.1,29.94,West,264,7.0,18.0,33,0.00,,,0.00,meteohub,2013-04-07 17:20:00,
2013-04-07 13:25:00,70.9,40.3,29.93,West,267,4.0,18.0,33,0.00,,,0.00,meteohub,2013-04-07 17:25:00,
2013-04-07 13:31:00,70.9,40.3,29.93,SE,138,3.0,13.0,33,0.00,,,0.00,meteohub,2013-04-07 17:31:00,
2013-04-07 13:36:00,71.2,40.6,29.93,WNW,283,1.0,13.0,33,0.00,,,0.00,meteohub,2013-04-07 17:36:00,
2013-04-07 13:41:00,71.2,40.6,29.93,West,272,5.0,16.0,33,0.00,,,0.00,meteohub,2013-04-07 17:41:00,
2013-04-07 13:46:00,71.4,41.5,29.92,WNW,296,6.0,16.0,34,0.00,,,0.00,meteohub,2013-04-07 17:46:00,
2013-04-07 13:52:00,72.0,40.5,29.92,SSW,207,9.0,14.0,32,0.00,,,0.00,meteohub,2013-04-07 17:52:00,
2013-04-07 13:57:00,72.3,42.4,29.92,WSW,248,4.0,14.0,34,0.00,,,0.00,meteohub,2013-04-07 17:57:00,
2013-04-07 14:02:00,72.5,41.0,29.92,WSW,255,15.0,15.0,32,0.00,,,0.00,meteohub,2013-04-07 18:02:00,
2013-04-07 14:07:00,72.0,40.5,29.92,West,271,6.0,17.0,32,0.00,,,0.00,meteohub,2013-04-07 18:07:00,
2013-04-07 14:12:00,72.3,41.5,29.92,SE,134,2.0,20.0,33,0.00,,,0.00,meteohub,2013-04-07 18:12:00,
2013-04-07 14:17:00,72.3,41.5,29.91,NW,315,1.0,20.0,33,0.00,,,0.00,meteohub,2013-04-07 18:17:00,
2013-04-07 14:23:00,72.3,41.5,29.91,WSW,248,4.0,19.0,33,0.00,,,0.00,meteohub,2013-04-07 18:23:00,
2013-04-07 14:28:00,72.3,41.5,29.91,West,263,6.0,10.0,33,0.00,,,0.00,meteohub,2013-04-07 18:28:00,
2013-04-07 14:33:00,73.0,42.3,29.91,SW,229,14.0,16.0,33,0.00,,,0.00,meteohub,2013-04-07 18:33:00,
2013-04-07 14:39:00,72.3,40.8,29.91,WSW,245,9.0,16.0,32,0.00,,,0.00,meteohub,2013-04-07 18:39:00,
2013-04-07 14:44:00,72.5,41.0,29.91,WNW,288,4.0,18.0,32,0.00,,,0.00,meteohub,2013-04-07 18:44:00,
2013-04-07 14:49:00,73.2,42.4,29.91,WSW,252,6.0,18.0,33,0.00,,,0.00,meteohub,2013-04-07 18:49:00,
2013-04-07 14:54:00,72.9,41.4,29.91,WSW,240,10.0,16.0,32,0.00,,,0.00,meteohub,2013-04-07 18:54:00,
2013-04-07 14:59:00,72.7,41.2,29.91,West,266,19.0,19.0,32,0.00,,,0.00,meteohub,2013-04-07 18:59:00,
2013-04-07 15:04:00,72.1,41.4,29.91,SW,233,4.0,19.0,33,0.00,,,0.00,meteohub,2013-04-07 19:04:00,
2013-04-07 15:10:00,72.1,42.3,29.91,WSW,255,5.0,19.0,34,0.00,,,0.00,meteohub,2013-04-07 19:10:00,
2013-04-07 15:15:00,72.1,42.3,29.91,South,190,4.0,16.0,34,0.00,,,0.00,meteohub,2013-04-07 19:15:00,
2013-04-07 15:20:00,72.3,41.5,29.90,West,281,3.0,16.0,33,0.00,,,0.00,meteohub,2013-04-07 19:20:00,
2013-04-07 15:25:00,72.7,41.9,29.91,South,189,3.0,18.0,33,0.00,,,0.00,meteohub,2013-04-07 19:25:00,
2013-04-07 15:31:00,72.1,42.3,29.90,WNW,286,2.0,18.0,34,0.00,,,0.00,meteohub,2013-04-07 19:31:00,
2013-04-07 15:36:00,72.0,42.1,29.90,West,276,7.0,17.0,34,0.00,,,0.00,meteohub,2013-04-07 19:36:00,
2013-04-07 15:41:00,72.0,42.1,29.90,SSW,197,1.0,17.0,34,0.00,,,0.00,meteohub,2013-04-07 19:41:00,
2013-04-07 15:47:00,72.0,42.8,29.91,West,274,3.0,15.0,35,0.00,,,0.00,meteohub,2013-04-07 19:47:00,
2013-04-07 15:52:00,71.6,41.7,29.91,WSW,239,12.0,12.0,34,0.00,,,0.00,meteohub,2013-04-07 19:52:00,
2013-04-07 15:57:00,71.4,42.3,29.90,WSW,240,3.0,14.0,35,0.00,,,0.00,meteohub,2013-04-07 19:57:00,
2013-04-07 16:02:00,71.8,41.9,29.91,SSW,194,7.0,14.0,34,0.00,,,0.00,meteohub,2013-04-07 20:02:00,
2013-04-07 16:08:00,71.4,42.3,29.90,WNW,284,2.0,14.0,35,0.00,,,0.00,meteohub,2013-04-07 20:08:00,
2013-04-07 16:13:00,71.4,43.2,29.90,SW,222,2.0,13.0,36,0.00,,,0.00,meteohub,2013-04-07 20:13:00,
2013-04-07 16:18:00,71.8,43.3,29.91,SW,236,4.0,13.0,36,0.00,,,0.00,meteohub,2013-04-07 20:18:00,
2013-04-07 16:24:00,71.8,42.6,29.90,West,270,4.0,13.0,35,0.00,,,0.00,meteohub,2013-04-07 20:24:00,
2013-04-07 16:30:00,71.6,43.2,29.90,SSW,203,5.0,17.0,36,0.00,,,0.00,meteohub,2013-04-07 20:30:00,
2013-04-07 16:35:00,71.6,43.2,29.91,SW,224,3.0,17.0,36,0.00,,,0.00,meteohub,2013-04-07 20:35:00,
2013-04-07 16:39:00,71.6,43.2,29.91,SE,146,0.0,17.0,36,0.00,,,0.00,meteohub,2013-04-07 20:39:00,
2013-04-07 16:42:00,71.4,43.2,29.90,WSW,238,5.0,12.0,36,0.00,,,0.00,meteohub,2013-04-07 20:42:00,
2013-04-07 16:47:00,71.4,43.2,29.91,WSW,253,1.0,15.0,36,0.00,,,0.00,meteohub,2013-04-07 20:47:00,
2013-04-07 16:55:00,71.4,43.7,29.91,SSE,158,6.0,15.0,37,0.00,,,0.00,meteohub,2013-04-07 20:55:00,
2013-04-07 17:00:00,71.4,43.2,29.91,WNW,285,5.0,10.0,36,0.00,,,0.00,meteohub,2013-04-07 21:00:00,
2013-04-07 17:05:00,71.4,43.2,29.91,WSW,250,1.0,14.0,36,0.00,,,0.00,meteohub,2013-04-07 21:05:00,
2013-04-07 17:10:00,71.4,43.7,29.91,NW,318,6.0,14.0,37,0.00,,,0.00,meteohub,2013-04-07 21:10:00,
2013-04-07 17:16:00,71.2,43.7,29.91,SSW,201,4.0,13.0,37,0.00,,,0.00,meteohub,2013-04-07 21:16:00,
2013-04-07 17:21:00,71.1,42.8,29.91,WNW,292,1.0,10.0,36,0.00,,,0.00,meteohub,2013-04-07 21:21:00,
2013-04-07 17:27:00,70.9,43.3,29.91,SSW,211,3.0,12.0,37,0.00,,,0.00,meteohub,2013-04-07 21:27:00,
2013-04-07 17:32:00,70.9,43.3,29.91,SSE,160,1.0,12.0,37,0.00,,,0.00,meteohub,2013-04-07 21:32:00,
2013-04-07 17:37:00,71.4,43.2,29.91,SSW,208,5.0,10.0,36,0.00,,,0.00,meteohub,2013-04-07 21:37:00,
2013-04-07 17:42:00,71.8,43.3,29.91,WSW,253,6.0,10.0,36,0.00,,,0.00,meteohub,2013-04-07 21:42:00,
2013-04-07 17:49:00,71.6,43.2,29.92,SW,216,11.0,12.0,36,0.00,,,0.00,meteohub,2013-04-07 21:49:00,
2013-04-07 17:55:00,71.1,44.2,29.93,SE,143,4.0,14.0,38,0.00,,,0.00,meteohub,2013-04-07 21:55:00,
2013-04-07 18:00:00,70.2,44.8,29.93,WNW,286,5.0,14.0,40,0.00,,,0.00,meteohub,2013-04-07 22:00:00,
2013-04-07 18:05:00,69.8,45.0,29.92,West,267,6.0,13.0,41,0.00,,,0.00,meteohub,2013-04-07 22:05:00,
2013-04-07 18:11:00,69.4,44.8,29.93,SSW,205,1.0,13.0,41,0.00,,,0.00,meteohub,2013-04-07 22:11:00,
2013-04-07 18:16:00,70.0,45.1,29.93,WSW,252,3.0,11.0,41,0.00,,,0.00,meteohub,2013-04-07 22:16:00,
2013-04-07 18:22:00,70.0,45.1,29.92,SSW,211,0.0,11.0,41,0.00,,,0.00,meteohub,2013-04-07 22:22:00,
2013-04-07 18:27:00,69.6,45.0,29.92,WSW,244,3.0,8.0,41,0.00,,,0.00,meteohub,2013-04-07 22:27:00,
2013-04-07 18:33:00,69.6,45.0,29.92,West,263,3.0,8.0,41,0.00,,,0.00,meteohub,2013-04-07 22:33:00,
2013-04-07 18:38:00,69.6,45.0,29.92,SW,236,2.0,8.0,41,0.00,,,0.00,meteohub,2013-04-07 22:38:00,
2013-04-07 18:43:00,69.4,45.3,29.92,WSW,238,2.0,8.0,42,0.00,,,0.00,meteohub,2013-04-07 22:43:00,
2013-04-07 18:48:00,69.3,45.1,29.92,West,262,1.0,5.0,42,0.00,,,0.00,meteohub,2013-04-07 22:48:00,
2013-04-07 18:54:00,69.1,45.0,29.92,WSW,254,0.0,5.0,42,0.00,,,0.00,meteohub,2013-04-07 22:54:00,
2013-04-07 18:59:00,68.7,45.3,29.93,WSW,253,2.0,5.0,43,0.00,,,0.00,meteohub,2013-04-07 22:59:00,
2013-04-07 19:04:00,68.5,45.1,29.93,West,267,2.0,5.0,43,0.00,,,0.00,meteohub,2013-04-07 23:04:00,
2013-04-07 19:10:00,68.5,45.1,29.93,SE,139,0.0,5.0,43,0.00,,,0.00,meteohub,2013-04-07 23:10:00,
2013-04-07 19:15:00,68.5,44.6,29.93,West,276,5.0,5.0,42,0.00,,,0.00,meteohub,2013-04-07 23:15:00,
2013-04-07 19:20:00,68.5,44.6,29.93,WSW,245,5.0,6.0,42,0.00,,,0.00,meteohub,2013-04-07 23:20:00,
2013-04-07 19:26:00,68.5,44.6,29.93,SW,218,2.0,6.0,42,0.00,,,0.00,meteohub,2013-04-07 23:26:00,
2013-04-07 19:31:00,68.5,45.1,29.93,West,278,4.0,6.0,43,0.00,,,0.00,meteohub,2013-04-07 23:31:00,
2013-04-07 19:36:00,68.5,45.7,29.94,WNW,291,3.0,6.0,44,0.00,,,0.00,meteohub,2013-04-07 23:36:00,
2013-04-07 19:42:00,66.9,50.2,29.95,NW,310,5.0,5.0,55,0.01,,,0.01,meteohub,2013-04-07 23:42:00,
2013-04-07 19:47:00,64.0,50.7,29.96,NNW,332,1.0,11.0,62,0.03,,,0.03,meteohub,2013-04-07 23:47:00,
2013-04-07 19:52:00,61.5,50.9,29.97,WNW,289,4.0,11.0,68,0.04,,,0.04,meteohub,2013-04-07 23:52:00,
2013-04-07 19:57:00,60.3,51.6,29.97,ESE,115,0.0,11.0,73,0.04,,,0.04,meteohub,2013-04-07 23:57:00,
2013-04-07 20:02:00,59.4,51.4,29.97,SE,133,0.0,8.0,75,0.04,,,0.04,meteohub,2013-04-08 00:02:00,
2013-04-07 20:07:00,58.6,51.8,29.99,WSW,240,1.0,6.0,78,0.04,,,0.04,meteohub,2013-04-08 00:07:00,
2013-04-07 20:12:00,57.9,51.4,29.99,ESE,108,0.0,5.0,79,0.04,,,0.04,meteohub,2013-04-08 00:12:00,
2013-04-07 20:17:00,57.9,51.4,29.98,East,80,2.0,2.0,79,0.05,,,0.05,meteohub,2013-04-08 00:17:00,
2013-04-07 20:23:00,57.7,51.6,29.97,East,88,2.0,2.0,80,0.05,,,0.05,meteohub,2013-04-08 00:23:00,
2013-04-07 20:28:00,57.2,52.2,29.98,East,88,0.0,4.0,83,0.06,,,0.06,meteohub,2013-04-08 00:28:00,
2013-04-07 20:33:00,56.7,52.2,29.97,ESE,118,1.0,4.0,85,0.06,,,0.06,meteohub,2013-04-08 00:33:00,
2013-04-07 20:39:00,56.1,52.0,29.97,ESE,121,0.0,4.0,86,0.06,,,0.06,meteohub,2013-04-08 00:39:00,
2013-04-07 20:44:00,55.8,52.0,29.97,ESE,109,0.0,2.0,87,0.04,,,0.06,meteohub,2013-04-08 00:44:00,
2013-04-07 20:49:00,55.6,52.3,29.97,ESE,109,0.0,2.0,89,0.03,,,0.06,meteohub,2013-04-08 00:49:00,
2013-04-07 20:54:00,55.6,52.3,29.97,ESE,109,0.0,1.0,89,0.02,,,0.06,meteohub,2013-04-08 00:54:00,
2013-04-07 20:59:00,55.2,52.3,29.97,ESE,109,0.0,1.0,90,0.02,,,0.06,meteohub,2013-04-08 00:59:00,
2013-04-07 21:05:00,55.2,52.3,29.98,SE,125,0.0,1.0,90,0.02,,,0.06,meteohub,2013-04-08 01:05:00,
2013-04-07 21:10:00,55.2,52.3,29.98,SE,126,0.0,1.0,90,0.02,,,0.06,meteohub,2013-04-08 01:10:00,
2013-04-07 21:15:00,55.2,52.7,29.98,SE,126,0.0,1.0,91,0.01,,,0.06,meteohub,2013-04-08 01:15:00,
2013-04-07 21:22:00,55.4,52.9,29.99,SE,125,0.0,0.0,91,0.00,,,0.06,meteohub,2013-04-08 01:22:00,
2013-04-07 21:27:00,55.0,52.2,29.99,WSW,256,0.0,1.0,90,0.01,,,0.07,meteohub,2013-04-08 01:27:00,
2013-04-07 21:32:00,54.7,52.3,29.99,SE,135,2.0,2.0,92,0.01,,,0.07,meteohub,2013-04-08 01:32:00,
2013-04-07 21:37:00,54.7,52.3,29.99,SSE,150,0.0,2.0,92,0.01,,,0.07,meteohub,2013-04-08 01:37:00,
2013-04-07 21:42:00,54.7,52.3,29.99,SW,214,0.0,2.0,92,0.01,,,0.07,meteohub,2013-04-08 01:42:00,
2013-04-07 21:48:00,54.7,52.2,29.99,ESE,118,0.0,2.0,91,0.01,,,0.07,meteohub,2013-04-08 01:48:00,
2013-04-07 21:53:00,54.9,52.3,29.99,ESE,120,1.0,2.0,91,0.01,,,0.07,meteohub,2013-04-08 01:53:00,
2013-04-07 21:58:00,55.0,52.2,30.00,SSE,162,0.0,2.0,90,0.01,,,0.07,meteohub,2013-04-08 01:58:00,
2013-04-07 22:03:00,54.9,52.0,29.99,SSE,156,0.0,2.0,90,0.01,,,0.07,meteohub,2013-04-08 02:03:00,
2013-04-07 22:09:00,54.9,52.0,29.99,SSE,156,0.0,2.0,90,0.01,,,0.07,meteohub,2013-04-08 02:09:00,
2013-04-07 22:14:00,55.0,51.8,29.99,ESE,112,0.0,1.0,89,0.01,,,0.07,meteohub,2013-04-08 02:14:00,
2013-04-07 22:19:00,55.0,51.8,29.99,SW,226,0.0,1.0,89,0.01,,,0.07,meteohub,2013-04-08 02:19:00,
2013-04-07 22:24:00,55.0,51.6,29.99,South,191,0.0,1.0,88,0.01,,,0.07,meteohub,2013-04-08 02:24:00,
2013-04-07 22:30:00,55.6,51.4,29.99,South,191,0.0,1.0,86,0.00,,,0.07,meteohub,2013-04-08 02:30:00,
2013-04-07 22:35:00,55.6,51.1,29.99,ESE,117,1.0,1.0,85,0.00,,,0.07,meteohub,2013-04-08 02:35:00,
2013-04-07 22:40:00,55.9,50.9,29.99,ESE,113,1.0,1.0,83,0.00,,,0.07,meteohub,2013-04-08 02:40:00,
2013-04-07 22:45:00,56.5,52.0,29.99,ESE,109,0.0,1.0,85,0.00,,,0.07,meteohub,2013-04-08 02:45:00,
2013-04-07 22:50:00,55.8,52.3,29.99,ESE,109,0.0,1.0,88,0.00,,,0.07,meteohub,2013-04-08 02:50:00,
2013-04-07 22:57:00,55.6,51.8,29.98,ESE,109,0.0,1.0,87,0.00,,,0.07,meteohub,2013-04-08 02:57:00,
2013-04-07 23:02:00,55.2,51.8,29.98,ESE,109,0.0,0.0,88,0.00,,,0.07,meteohub,2013-04-08 03:02:00,
2013-04-07 23:07:00,55.0,50.9,29.98,SE,132,0.0,0.0,86,0.00,,,0.07,meteohub,2013-04-08 03:07:00,
2013-04-07 23:12:00,55.9,49.8,29.98,ESE,117,0.0,2.0,80,0.00,,,0.07,meteohub,2013-04-08 03:12:00,
2013-04-07 23:18:00,56.7,49.8,29.98,ESE,103,0.0,2.0,78,0.00,,,0.07,meteohub,2013-04-08 03:18:00,
2013-04-07 23:23:00,57.4,50.2,29.98,SE,137,0.0,2.0,77,0.00,,,0.07,meteohub,2013-04-08 03:23:00,
2013-04-07 23:29:00,57.0,51.3,29.98,SE,136,0.0,3.0,81,0.00,,,0.07,meteohub,2013-04-08 03:29:00,
2013-04-07 23:37:00,55.8,48.7,29.98,ESE,105,0.0,3.0,77,0.00,,,0.07,meteohub,2013-04-08 03:37:00,
2013-04-07 23:42:00,56.1,50.0,29.98,ESE,105,0.0,2.0,80,0.00,,,0.07,meteohub,2013-04-08 03:42:00,
2013-04-07 23:48:00,55.0,50.0,29.98,ESE,105,0.0,2.0,83,0.00,,,0.07,meteohub,2013-04-08 03:48:00,
2013-04-07 23:53:00,54.1,49.5,29.98,ESE,103,0.0,2.0,84,0.00,,,0.07,meteohub,2013-04-08 03:53:00,